Weather History for KOSU - October, 2012

Change the Weather History Date:

Sunday, October 21, 2012

  Actual Average Record
Temperature  
Mean Temperature 48 °F -  
Max Temperature 61 °F 59 °F 79 °F (2007)
Min Temperature 35 °F 40 °F 30 °F (1997)
Degree Days  
Heating Degree Days 17    
Moisture  
Dew Point 40 °F    
Average Humidity 81    
Maximum Humidity 100    
Minimum Humidity 50    
Precipitation  
Precipitation 0.00 in - - ()
Sea Level Pressure  
Sea Level Pressure 30.10 in    
Wind  
Wind Speed 1 mph (South)    
Max Wind Speed 9 mph    
Max Gust Speed -    
Visibility 8 miles    
Events Fog    
Averages and records for this station are not official NWS values.
T = Trace of Precipitation, MM = Missing Value Source: NWS Daily Summary

Daily Weather History Graph

Daily Weather History Graph

Search for Another Location

Airport or City:

Trip Planner

Search our weather history database for the weather conditions in past years. The results will help you decide how hot, cold, wet, or windy it might be!

Date:

Astronomy

Oct. 21, 2012 Rise Set
Actual Time 7:49 AM EDT 6:43 PM EDT
Civil Twilight 7:22 AM EDT 7:10 PM EDT
Nautical Twilight 6:50 AM EDT 7:42 PM EDT
Astronomical Twilight 6:19 AM EDT 8:13 PM EDT
Moon 2:09 PM EDT (10/21) No Moon Set
Length of Visible Light 11h 48m
Length of Day
10h 53m
Waxing Crescent, 45% of the Moon is Illuminated
Oct 21
Waxing Crescent
Oct 21
First Quarter
Oct 29
Full
Nov 6
Last Quarter
Nov 13
New

Hourly Weather History & Observations

Time (EDT) Temp. Windchill Dew Point Humidity Pressure Visibility Wind Dir Wind Speed Gust Speed Precip Events Conditions
12:53 AM 41.0 °F - 37.0 °F 86% 30.00 in 10.0 mi Calm Calm - N/A   Clear
1:53 AM 39.9 °F - 37.0 °F 89% 30.01 in 10.0 mi Calm Calm - N/A   Clear
2:53 AM 39.9 °F - 37.0 °F 89% 30.04 in 10.0 mi Calm Calm - N/A   Clear
3:53 AM 39.0 °F - 37.9 °F 96% 30.05 in 10.0 mi Calm Calm - N/A   Clear
4:53 AM 37.9 °F - 37.0 °F 97% 30.07 in 5.0 mi Calm Calm - N/A   Clear
5:11 AM 37.4 °F - 37.4 °F 100% 30.07 in 0.8 mi Calm Calm - N/A   Clear
5:23 AM 37.4 °F - 37.4 °F 100% 30.07 in 2.5 mi Calm Calm - N/A   Clear
5:30 AM 37.4 °F - 37.4 °F 100% 30.07 in 5.0 mi Calm Calm - N/A   Clear
5:53 AM 36.0 °F - 36.0 °F 100% 30.09 in 6.0 mi Calm Calm - N/A   Clear
6:19 AM 37.4 °F - 37.4 °F 100% 30.08 in 1.8 mi Calm Calm - N/A   Clear
6:29 AM 37.4 °F - 35.6 °F 93% 30.09 in 0.5 mi Calm Calm - N/A Fog Fog
6:36 AM 37.4 °F - 35.6 °F 93% 30.09 in 2.5 mi Calm Calm - N/A   Clear
6:43 AM 35.6 °F - 35.6 °F 100% 30.09 in 8.0 mi Calm Calm - N/A   Clear
6:53 AM 36.0 °F - 35.1 °F 97% 30.11 in 8.0 mi Calm Calm - N/A   Clear
7:53 AM 35.1 °F - 35.1 °F 100% 30.13 in 5.0 mi Calm Calm - N/A   Clear
8:53 AM 39.0 °F 36.8 °F 39.0 °F 100% 30.15 in 5.0 mi South 3.5 mph - N/A   Clear
9:53 AM 45.0 °F 43.5 °F 43.0 °F 93% 30.16 in 8.0 mi SSW 3.5 mph - N/A   Clear
10:53 AM 50.0 °F - 43.0 °F 77% 30.16 in 10.0 mi Calm Calm - N/A   Clear
11:53 AM 53.1 °F - 44.1 °F 71% 30.16 in 10.0 mi South 6.9 mph - N/A   Clear
12:53 PM 55.9 °F - 43.0 °F 62% 30.16 in 10.0 mi SSW 6.9 mph - N/A   Scattered Clouds
1:53 PM 57.9 °F - 42.1 °F 56% 30.14 in 10.0 mi South 9.2 mph - N/A   Mostly Cloudy
2:53 PM 59.0 °F - 41.0 °F 51% 30.12 in 10.0 mi Variable 5.8 mph - N/A   Clear
3:53 PM 60.1 °F - 42.1 °F 51% 30.10 in 10.0 mi South 4.6 mph - N/A   Clear
4:53 PM 61.0 °F - 42.1 °F 50% 30.10 in 10.0 mi South 8.1 mph - N/A   Clear
5:53 PM 60.1 °F - 44.1 °F 55% 30.10 in 10.0 mi South 3.5 mph - N/A   Clear
6:53 PM 57.9 °F - 43.0 °F 58% 30.11 in 10.0 mi SSE 4.6 mph - N/A   Clear
7:53 PM 55.9 °F - 44.1 °F 64% 30.12 in 10.0 mi SSE 4.6 mph - N/A   Clear
8:53 PM 55.0 °F - 44.1 °F 67% 30.12 in 10.0 mi SE 3.5 mph - N/A   Clear
9:53 PM 50.0 °F - 43.0 °F 77% 30.13 in 10.0 mi Calm Calm - N/A   Clear
10:53 PM 50.0 °F - 43.0 °F 77% 30.14 in 10.0 mi SE 3.5 mph - N/A   Clear
11:53 PM 48.9 °F - 42.1 °F 77% 30.13 in 10.0 mi Calm Calm - N/A   Clear